Location: Bonn
(50.7330°N, 7.1000°E)
Time: 15:28:56
(UTC+01:00)

Iridium 67 - Visible Passes

Search period start: 05 December 2016 00:00
Search period end: 15 December 2016 00:00
Orbit: 776 x 779 km, 86.4° (Epoch: 04 December)

Date Brightness Start Highest point End Pass type
(mag) Time Alt. Az. Time Alt. Az. Time Alt. Az.
06 Dec 8.1 17:37:07 10° WSW 17:40:24 17° WNW 17:43:42 10° NNW visible
07 Dec 7.6 17:02:07 10° SW 17:06:29 27° WNW 17:10:53 10° NNW visible
09 Dec 8.2 17:38:42 10° W 17:40:48 12° WNW 17:42:55 10° NW visible
10 Dec 7.9 17:03:01 10° WSW 17:06:48 20° WNW 17:10:38 10° NNW visible
13 Dec 8.1 17:04:14 10° W 17:07:11 15° WNW 17:10:09 10° NNW visible
